contact:dominique.lefevre@mio.osupytheas.fr, maurice.libes@osupytheas.fr, didier.mallarino@osupytheas.fr
Project:EMSO http://www.emso-fr.org/EMSO-France
Depth: 2436.0 m
Title:EMSO Ligure Ouest : Data MII capteur MICROCAT
DateTime_Computer,Latitude,Longitude,Temperature,Conductivity,Pressure,DateTime_Instrument
DateTime_Computer,Latitude,Longitude,degC,S m-1,dbar,DateTime_Instrument
2023-09-13T00:02:23Z,42.805,6.029,13.3032,4.60122,2470.693,2023-9-13T02:04:45Z
2023-09-13T00:05:26Z,42.805,6.029,13.3036,4.60127,2470.717,2023-9-13T02:07:48Z
2023-09-13T00:08:29Z,42.805,6.029,13.3054,4.60139,2470.717,2023-9-13T02:10:51Z
2023-09-13T00:11:32Z,42.805,6.029,13.3027,4.60123,2470.754,2023-9-13T02:13:54Z
2023-09-13T00:14:36Z,42.805,6.029,13.3032,4.60114,2470.707,2023-9-13T02:16:57Z
2023-09-13T00:17:39Z,42.805,6.029,13.3039,4.60125,2470.754,2023-9-13T02:20:00Z
2023-09-13T00:20:42Z,42.805,6.029,13.3031,4.60119,2470.717,2023-9-13T02:23:04Z
2023-09-13T00:23:45Z,42.805,6.029,13.3034,4.60125,2470.717,2023-9-13T02:26:07Z
2023-09-13T00:26:48Z,42.805,6.029,13.3035,4.60135,2470.73,2023-9-13T02:29:10Z
2023-09-13T00:29:51Z,42.805,6.029,13.3039,4.60137,2470.74,2023-9-13T02:32:13Z
2023-09-13T00:32:54Z,42.805,6.029,13.3036,4.60138,2470.754,2023-9-13T02:35:16Z
2023-09-13T00:35:57Z,42.805,6.029,13.3040,4.60126,2470.73,2023-9-13T02:38:19Z
2023-09-13T00:39:00Z,42.805,6.029,13.3032,4.60113,2470.74,2023-9-13T02:41:22Z
2023-09-13T00:42:03Z,42.805,6.029,13.3038,4.60142,2470.693,2023-9-13T02:44:25Z
2023-09-13T00:45:06Z,42.805,6.029,13.3034,4.60137,2470.693,2023-9-13T02:47:28Z
2023-09-13T00:48:09Z,42.805,6.029,13.3039,4.60120,2470.693,2023-9-13T02:50:31Z
2023-09-13T00:51:13Z,42.805,6.029,13.3028,4.60128,2470.74,2023-9-13T02:53:34Z
2023-09-13T00:54:16Z,42.805,6.029,13.3034,4.60119,2470.707,2023-9-13T02:56:37Z
2023-09-13T00:57:19Z,42.805,6.029,13.3036,4.60127,2470.693,2023-9-13T02:59:41Z
2023-09-13T01:00:22Z,42.805,6.029,13.3036,4.60121,2470.717,2023-9-13T03:02:44Z
2023-09-13T01:03:25Z,42.805,6.029,13.3036,4.60113,2470.73,2023-9-13T03:05:47Z
2023-09-13T01:06:28Z,42.805,6.029,13.3031,4.60114,2470.679,2023-9-13T03:08:50Z
2023-09-13T01:09:31Z,42.805,6.029,13.3031,4.60116,2470.684,2023-9-13T03:11:53Z
2023-09-13T01:12:34Z,42.805,6.029,13.3036,4.60132,2470.656,2023-9-13T03:14:56Z
2023-09-13T01:15:37Z,42.805,6.029,13.3037,4.60154,2470.67,2023-9-13T03:17:59Z
2023-09-13T01:18:40Z,42.805,6.029,13.3063,4.60127,2470.693,2023-9-13T03:21:02Z
2023-09-13T01:21:43Z,42.805,6.029,13.3041,4.60126,2470.693,2023-9-13T03:24:05Z
2023-09-13T01:24:46Z,42.805,6.029,13.3037,4.60119,2470.717,2023-9-13T03:27:08Z
2023-09-13T01:27:50Z,42.805,6.029,13.3039,4.60131,2470.726,2023-9-13T03:30:11Z
2023-09-13T01:30:53Z,42.805,6.029,13.3031,4.60126,2470.73,2023-9-13T03:33:14Z
2023-09-13T01:33:56Z,42.805,6.029,13.3037,4.60120,2470.73,2023-9-13T03:36:17Z
2023-09-13T01:36:59Z,42.805,6.029,13.3039,4.60136,2470.693,2023-9-13T03:39:21Z
2023-09-13T01:40:02Z,42.805,6.029,13.3031,4.60125,2470.693,2023-9-13T03:42:24Z
2023-09-13T01:43:05Z,42.805,6.029,13.3030,4.60117,2470.693,2023-9-13T03:45:27Z
2023-09-13T01:46:08Z,42.805,6.029,13.3041,4.60120,2470.693,2023-9-13T03:48:30Z
2023-09-13T01:49:11Z,42.805,6.029,13.3040,4.60142,2470.717,2023-9-13T03:51:33Z
2023-09-13T01:52:14Z,42.805,6.029,13.3041,4.60150,2470.73,2023-9-13T03:54:36Z
2023-09-13T01:55:17Z,42.805,6.029,13.3045,4.60132,2470.74,2023-9-13T03:57:39Z
2023-09-13T01:58:20Z,42.805,6.029,13.3040,4.60137,2470.707,2023-9-13T04:00:42Z
2023-09-13T02:01:23Z,42.805,6.029,13.3042,4.60118,2470.703,2023-9-13T04:03:45Z
2023-09-13T02:04:27Z,42.805,6.029,13.3036,4.60110,2470.717,2023-9-13T04:06:48Z
2023-09-13T02:07:30Z,42.805,6.029,13.3039,4.60122,2470.73,2023-9-13T04:09:51Z
2023-09-13T02:10:33Z,42.805,6.029,13.3035,4.60130,2470.717,2023-9-13T04:12:54Z
2023-09-13T02:13:36Z,42.805,6.029,13.3036,4.60132,2470.73,2023-9-13T04:15:58Z
2023-09-13T02:16:39Z,42.805,6.029,13.3030,4.60112,2470.693,2023-9-13T04:19:01Z
2023-09-13T02:19:42Z,42.805,6.029,13.3036,4.60125,2470.717,2023-9-13T04:22:04Z
2023-09-13T02:22:45Z,42.805,6.029,13.3037,4.60124,2470.73,2023-9-13T04:25:07Z
2023-09-13T02:25:48Z,42.805,6.029,13.3046,4.60132,2470.73,2023-9-13T04:28:10Z
2023-09-13T02:28:51Z,42.805,6.029,13.3032,4.60119,2470.707,2023-9-13T04:31:13Z
2023-09-13T02:31:54Z,42.805,6.029,13.3054,4.60123,2470.73,2023-9-13T04:34:16Z
2023-09-13T02:34:57Z,42.805,6.029,13.3043,4.60119,2470.717,2023-9-13T04:37:19Z
2023-09-13T02:38:00Z,42.805,6.029,13.3039,4.60138,2470.717,2023-9-13T04:40:22Z
2023-09-13T02:41:03Z,42.805,6.029,13.3039,4.60125,2470.74,2023-9-13T04:43:25Z
2023-09-13T02:44:07Z,42.805,6.029,13.3038,4.60126,2470.717,2023-9-13T04:46:28Z
2023-09-13T02:47:10Z,42.805,6.029,13.3036,4.60125,2470.754,2023-9-13T04:49:31Z
2023-09-13T02:50:13Z,42.805,6.029,13.3039,4.60130,2470.717,2023-9-13T04:52:34Z
2023-09-13T02:53:16Z,42.805,6.029,13.3034,4.60116,2470.74,2023-9-13T04:55:38Z
2023-09-13T02:56:19Z,42.805,6.029,13.3036,4.60117,2470.777,2023-9-13T04:58:41Z
2023-09-13T02:59:22Z,42.805,6.029,13.3036,4.60111,2470.754,2023-9-13T05:01:44Z
2023-09-13T03:02:25Z,42.805,6.029,13.3031,4.60141,2470.717,2023-9-13T05:04:47Z
2023-09-13T03:05:28Z,42.805,6.029,13.3036,4.60126,2470.777,2023-9-13T05:07:50Z
2023-09-13T03:08:31Z,42.805,6.029,13.3034,4.60127,2470.754,2023-9-13T05:10:53Z
2023-09-13T03:11:34Z,42.805,6.029,13.3050,4.60125,2470.717,2023-9-13T05:13:56Z
2023-09-13T03:14:37Z,42.805,6.029,13.3039,4.60113,2470.763,2023-9-13T05:16:59Z
2023-09-13T03:17:40Z,42.805,6.029,13.3038,4.60117,2470.763,2023-9-13T05:20:02Z
2023-09-13T03:20:44Z,42.805,6.029,13.3044,4.60104,2470.74,2023-9-13T05:23:05Z
2023-09-13T03:23:47Z,42.805,6.029,13.3036,4.60112,2470.717,2023-9-13T05:26:08Z
2023-09-13T03:26:50Z,42.805,6.029,13.3041,4.60108,2470.8,2023-9-13T05:29:11Z
2023-09-13T03:29:53Z,42.805,6.029,13.3036,4.60109,2470.763,2023-9-13T05:32:14Z
2023-09-13T03:32:56Z,42.805,6.029,13.3031,4.60108,2470.74,2023-9-13T05:35:18Z
2023-09-13T03:35:59Z,42.805,6.029,13.3032,4.60117,2470.74,2023-9-13T05:38:21Z
2023-09-13T03:39:02Z,42.805,6.029,13.3041,4.60125,2470.74,2023-9-13T05:41:24Z
2023-09-13T03:42:05Z,42.805,6.029,13.3035,4.60123,2470.754,2023-9-13T05:44:27Z
2023-09-13T03:45:08Z,42.805,6.029,13.3040,4.60137,2470.777,2023-9-13T05:47:30Z
2023-09-13T03:48:11Z,42.805,6.029,13.3043,4.60112,2470.787,2023-9-13T05:50:33Z
2023-09-13T03:51:14Z,42.805,6.029,13.3033,4.60128,2470.763,2023-9-13T05:53:36Z
2023-09-13T03:54:17Z,42.805,6.029,13.3035,4.60127,2470.763,2023-9-13T05:56:39Z
2023-09-13T03:57:20Z,42.805,6.029,13.3036,4.60126,2470.754,2023-9-13T05:59:42Z
2023-09-13T04:00:24Z,42.805,6.029,13.3036,4.60132,2470.777,2023-9-13T06:02:45Z
2023-09-13T04:03:27Z,42.805,6.029,13.3031,4.60113,2470.787,2023-9-13T06:05:48Z
2023-09-13T04:06:30Z,42.805,6.029,13.3031,4.60129,2470.763,2023-9-13T06:08:51Z
2023-09-13T04:09:33Z,42.805,6.029,13.3041,4.60106,2470.763,2023-9-13T06:11:55Z
2023-09-13T04:12:36Z,42.805,6.029,13.3031,4.60110,2470.763,2023-9-13T06:14:58Z
2023-09-13T04:15:39Z,42.805,6.029,13.3036,4.60125,2470.763,2023-9-13T06:18:01Z
2023-09-13T04:18:42Z,42.805,6.029,13.3040,4.60107,2470.8,2023-9-13T06:21:04Z
2023-09-13T04:21:45Z,42.805,6.029,13.3039,4.60129,2470.787,2023-9-13T06:24:07Z
2023-09-13T04:24:48Z,42.805,6.029,13.3040,4.60117,2470.787,2023-9-13T06:27:10Z
2023-09-13T04:27:51Z,42.805,6.029,13.3033,4.60122,2470.787,2023-9-13T06:30:13Z
2023-09-13T04:30:54Z,42.805,6.029,13.3034,4.60137,2470.81,2023-9-13T06:33:16Z
2023-09-13T04:33:57Z,42.805,6.029,13.3049,4.60120,2470.787,2023-9-13T06:36:19Z
2023-09-13T04:37:01Z,42.805,6.029,13.3035,4.60132,2470.763,2023-9-13T06:39:22Z
2023-09-13T04:40:04Z,42.805,6.029,13.3046,4.60131,2470.763,2023-9-13T06:42:25Z
2023-09-13T04:43:07Z,42.805,6.029,13.3033,4.60112,2470.787,2023-9-13T06:45:28Z
2023-09-13T04:46:10Z,42.805,6.029,13.3041,4.60117,2470.81,2023-9-13T06:48:32Z
2023-09-13T04:49:13Z,42.805,6.029,13.3043,4.60112,2470.8,2023-9-13T06:51:35Z
2023-09-13T04:52:16Z,42.805,6.029,13.3042,4.60102,2470.787,2023-9-13T06:54:38Z
2023-09-13T04:55:19Z,42.805,6.029,13.3040,4.60117,2470.8,2023-9-13T06:57:41Z
2023-09-13T04:58:22Z,42.805,6.029,13.3036,4.60131,2470.787,2023-9-13T07:00:44Z
2023-09-13T05:01:25Z,42.805,6.029,13.3035,4.60112,2470.787,2023-9-13T07:03:47Z
2023-09-13T05:04:28Z,42.805,6.029,13.3037,4.60132,2470.787,2023-9-13T07:06:50Z
2023-09-13T05:07:31Z,42.805,6.029,13.3049,4.60113,2470.8,2023-9-13T07:09:53Z
2023-09-13T05:10:34Z,42.805,6.029,13.3036,4.60119,2470.787,2023-9-13T07:12:56Z
2023-09-13T05:13:37Z,42.805,6.029,13.3038,4.60112,2470.81,2023-9-13T07:15:59Z
2023-09-13T05:16:41Z,42.805,6.029,13.3034,4.60119,2470.8,2023-9-13T07:19:02Z
2023-09-13T05:19:44Z,42.805,6.029,13.3036,4.60147,2470.81,2023-9-13T07:22:05Z
2023-09-13T05:22:47Z,42.805,6.029,13.3035,4.60151,2470.81,2023-9-13T07:25:08Z
2023-09-13T05:25:50Z,42.805,6.029,13.3040,4.60117,2470.796,2023-9-13T07:28:12Z
2023-09-13T05:28:53Z,42.805,6.029,13.3038,4.60127,2470.81,2023-9-13T07:31:15Z
2023-09-13T05:31:56Z,42.805,6.029,13.3031,4.60115,2470.81,2023-9-13T07:34:18Z
2023-09-13T05:34:59Z,42.805,6.029,13.3035,4.60120,2470.81,2023-9-13T07:37:21Z
2023-09-13T05:38:02Z,42.805,6.029,13.3039,4.60145,2470.81,2023-9-13T07:40:24Z
2023-09-13T05:41:05Z,42.805,6.029,13.3041,4.60131,2470.824,2023-9-13T07:43:27Z
2023-09-13T05:44:08Z,42.805,6.029,13.3037,4.60121,2470.824,2023-9-13T07:46:30Z
2023-09-13T05:47:11Z,42.805,6.029,13.3035,4.60117,2470.824,2023-9-13T07:49:33Z
2023-09-13T05:50:14Z,42.805,6.029,13.3034,4.60122,2470.81,2023-9-13T07:52:36Z
2023-09-13T05:53:18Z,42.805,6.029,13.3041,4.60127,2470.81,2023-9-13T07:55:39Z
2023-09-13T05:56:21Z,42.805,6.029,13.3041,4.60129,2470.82,2023-9-13T07:58:42Z
2023-09-13T05:59:24Z,42.805,6.029,13.3028,4.60112,2470.871,2023-9-13T08:01:45Z
2023-09-13T06:02:27Z,42.805,6.029,13.3041,4.60119,2470.81,2023-9-13T08:04:49Z
2023-09-13T06:05:30Z,42.805,6.029,13.3044,4.60124,2470.833,2023-9-13T08:07:52Z
2023-09-13T06:08:33Z,42.805,6.029,13.3039,4.60112,2470.847,2023-9-13T08:10:55Z
2023-09-13T06:11:36Z,42.805,6.029,13.3041,4.60127,2470.787,2023-9-13T08:13:58Z
2023-09-13T06:14:39Z,42.805,6.029,13.3033,4.60126,2470.833,2023-9-13T08:17:01Z
2023-09-13T06:17:42Z,42.805,6.029,13.3033,4.60112,2470.81,2023-9-13T08:20:04Z
2023-09-13T06:20:45Z,42.805,6.029,13.3031,4.60122,2470.81,2023-9-13T08:23:07Z
2023-09-13T06:23:48Z,42.805,6.029,13.3036,4.60117,2470.81,2023-9-13T08:26:10Z
2023-09-13T06:26:51Z,42.805,6.029,13.3034,4.60115,2470.81,2023-9-13T08:29:13Z
2023-09-13T06:29:54Z,42.805,6.029,13.3038,4.60117,2470.824,2023-9-13T08:32:16Z
2023-09-13T06:32:58Z,42.805,6.029,13.3039,4.60126,2470.824,2023-9-13T08:35:19Z
2023-09-13T06:36:01Z,42.805,6.029,13.3037,4.60123,2470.81,2023-9-13T08:38:22Z
2023-09-13T06:39:04Z,42.805,6.029,13.3039,4.60129,2470.8,2023-9-13T08:41:26Z
2023-09-13T06:42:07Z,42.805,6.029,13.3035,4.60114,2470.847,2023-9-13T08:44:29Z
2023-09-13T06:45:10Z,42.805,6.029,13.3031,4.60115,2470.833,2023-9-13T08:47:32Z
2023-09-13T06:48:13Z,42.805,6.029,13.3033,4.60115,2470.847,2023-9-13T08:50:35Z
2023-09-13T06:51:16Z,42.805,6.029,13.3034,4.60129,2470.824,2023-9-13T08:53:38Z
2023-09-13T06:54:19Z,42.805,6.029,13.3030,4.60120,2470.857,2023-9-13T08:56:41Z
2023-09-13T06:57:22Z,42.805,6.029,13.3031,4.60125,2470.787,2023-9-13T08:59:44Z
2023-09-13T07:00:25Z,42.805,6.029,13.3035,4.60117,2470.847,2023-9-13T09:02:47Z
2023-09-13T07:03:28Z,42.805,6.029,13.3039,4.60123,2470.8,2023-9-13T09:05:50Z
2023-09-13T07:06:31Z,42.805,6.029,13.3046,4.60127,2470.787,2023-9-13T09:08:53Z
2023-09-13T07:09:35Z,42.805,6.029,13.3034,4.60114,2470.8,2023-9-13T09:11:56Z
2023-09-13T07:12:38Z,42.805,6.029,13.3031,4.60117,2470.81,2023-9-13T09:14:59Z
2023-09-13T07:15:41Z,42.805,6.029,13.3039,4.60136,2470.787,2023-9-13T09:18:02Z
2023-09-13T07:18:44Z,42.805,6.029,13.3041,4.60122,2470.8,2023-9-13T09:21:06Z
2023-09-13T07:21:47Z,42.805,6.029,13.3037,4.60128,2470.81,2023-9-13T09:24:09Z
2023-09-13T07:24:50Z,42.805,6.029,13.3033,4.60136,2470.824,2023-9-13T09:27:12Z
2023-09-13T07:27:53Z,42.805,6.029,13.3030,4.60122,2470.787,2023-9-13T09:30:15Z
2023-09-13T07:30:56Z,42.805,6.029,13.3039,4.60126,2470.787,2023-9-13T09:33:18Z
2023-09-13T07:33:59Z,42.805,6.029,13.3035,4.60127,2470.81,2023-9-13T09:36:21Z
2023-09-13T07:37:02Z,42.805,6.029,13.3041,4.60133,2470.787,2023-9-13T09:39:24Z
2023-09-13T07:40:05Z,42.805,6.029,13.3035,4.60117,2470.81,2023-9-13T09:42:27Z
2023-09-13T07:43:08Z,42.805,6.029,13.3039,4.60130,2470.81,2023-9-13T09:45:30Z
2023-09-13T07:46:11Z,42.805,6.029,13.3036,4.60131,2470.824,2023-9-13T09:48:33Z
2023-09-13T07:49:15Z,42.805,6.029,13.3030,4.60123,2470.81,2023-9-13T09:51:36Z
2023-09-13T07:52:18Z,42.805,6.029,13.3037,4.60117,2470.787,2023-9-13T09:54:39Z
2023-09-13T07:55:21Z,42.805,6.029,13.3033,4.60131,2470.787,2023-9-13T09:57:43Z
2023-09-13T07:58:24Z,42.805,6.029,13.3039,4.60136,2470.81,2023-9-13T10:00:46Z
2023-09-13T08:01:27Z,42.805,6.029,13.3035,4.60122,2470.763,2023-9-13T10:03:49Z
2023-09-13T08:04:30Z,42.805,6.029,13.3042,4.60131,2470.787,2023-9-13T10:06:52Z
2023-09-13T08:07:33Z,42.805,6.029,13.3036,4.60140,2470.8,2023-9-13T10:09:55Z
2023-09-13T08:10:36Z,42.805,6.029,13.3047,4.60142,2470.824,2023-9-13T10:12:58Z
2023-09-13T08:13:39Z,42.805,6.029,13.3031,4.60117,2470.763,2023-9-13T10:16:01Z
2023-09-13T08:16:42Z,42.805,6.029,13.3051,4.60140,2470.81,2023-9-13T10:19:04Z
2023-09-13T08:19:45Z,42.805,6.029,13.3036,4.60112,2470.787,2023-9-13T10:22:07Z
2023-09-13T08:22:48Z,42.805,6.029,13.3034,4.60148,2470.81,2023-9-13T10:25:10Z
2023-09-13T08:25:52Z,42.805,6.029,13.3041,4.60133,2470.777,2023-9-13T10:28:13Z
2023-09-13T08:28:55Z,42.805,6.029,13.3032,4.60133,2470.8,2023-9-13T10:31:16Z
2023-09-13T08:31:59Z,42.805,6.029,13.3048,4.60145,2470.74,2023-9-13T10:34:21Z
2023-09-13T08:35:03Z,42.805,6.029,13.3037,4.60129,2470.777,2023-9-13T10:37:24Z
2023-09-13T08:38:06Z,42.805,6.029,13.3039,4.60143,2470.777,2023-9-13T10:40:27Z
2023-09-13T08:41:09Z,42.805,6.029,13.3039,4.60149,2470.777,2023-9-13T10:43:31Z
2023-09-13T08:44:12Z,42.805,6.029,13.3041,4.60138,2470.763,2023-9-13T10:46:34Z
2023-09-13T08:47:15Z,42.805,6.029,13.3046,4.60132,2470.777,2023-9-13T10:49:37Z
2023-09-13T08:50:18Z,42.805,6.029,13.3039,4.60138,2470.754,2023-9-13T10:52:40Z
2023-09-13T08:53:21Z,42.805,6.029,13.3040,4.60125,2470.763,2023-9-13T10:55:43Z
2023-09-13T08:56:24Z,42.805,6.029,13.3041,4.60117,2470.824,2023-9-13T10:58:46Z
2023-09-13T08:59:27Z,42.805,6.029,13.3034,4.60110,2470.763,2023-9-13T11:01:49Z
2023-09-13T09:02:30Z,42.805,6.029,13.3040,4.60134,2470.777,2023-9-13T11:04:52Z
2023-09-13T09:05:33Z,42.805,6.029,13.3043,4.60132,2470.777,2023-9-13T11:07:55Z
2023-09-13T09:08:36Z,42.805,6.029,13.3038,4.60144,2470.754,2023-9-13T11:10:58Z
2023-09-13T09:11:40Z,42.805,6.029,13.3039,4.60142,2470.787,2023-9-13T11:14:01Z
2023-09-13T09:14:43Z,42.805,6.029,13.3039,4.60134,2470.763,2023-9-13T11:17:04Z
2023-09-13T09:17:46Z,42.805,6.029,13.3036,4.60126,2470.74,2023-9-13T11:20:08Z
2023-09-13T09:20:49Z,42.805,6.029,13.3037,4.60147,2470.74,2023-9-13T11:23:11Z
2023-09-13T09:23:52Z,42.805,6.029,13.3032,4.60128,2470.74,2023-9-13T11:26:14Z
2023-09-13T09:26:55Z,42.805,6.029,13.3053,4.60138,2470.777,2023-9-13T11:29:17Z
2023-09-13T09:29:58Z,42.805,6.029,13.3034,4.60131,2470.73,2023-9-13T11:32:20Z
2023-09-13T09:33:01Z,42.805,6.029,13.3037,4.60134,2470.717,2023-9-13T11:35:23Z
2023-09-13T09:36:04Z,42.805,6.029,13.3039,4.60130,2470.754,2023-9-13T11:38:26Z
2023-09-13T09:39:07Z,42.805,6.029,13.3034,4.60125,2470.763,2023-9-13T11:41:29Z
2023-09-13T09:42:10Z,42.805,6.029,13.3042,4.60139,2470.777,2023-9-13T11:44:32Z
2023-09-13T09:45:14Z,42.805,6.029,13.3038,4.60133,2470.74,2023-9-13T11:47:35Z
2023-09-13T09:53:08Z,42.805,6.029,13.3041,4.60135,2470.74,2023-9-13T11:55:30Z
2023-09-13T09:56:11Z,42.805,6.029,13.3036,4.60131,2470.754,2023-9-13T11:58:33Z
2023-09-13T09:59:14Z,42.805,6.029,13.3037,4.60140,2470.754,2023-9-13T12:01:36Z
2023-09-13T10:02:17Z,42.805,6.029,13.3042,4.60147,2470.754,2023-9-13T12:04:39Z
2023-09-13T10:05:20Z,42.805,6.029,13.3034,4.60130,2470.73,2023-9-13T12:07:42Z
2023-09-13T10:08:23Z,42.805,6.029,13.3035,4.60129,2470.754,2023-9-13T12:10:45Z
2023-09-13T10:11:26Z,42.805,6.029,13.3042,4.60135,2470.73,2023-9-13T12:13:48Z
2023-09-13T10:14:30Z,42.805,6.029,13.3043,4.60158,2470.73,2023-9-13T12:16:51Z
2023-09-13T10:17:33Z,42.805,6.029,13.3043,4.60135,2470.73,2023-9-13T12:19:54Z
2023-09-13T10:20:36Z,42.805,6.029,13.3041,4.60144,2470.73,2023-9-13T12:22:58Z
2023-09-13T10:23:39Z,42.805,6.029,13.3031,4.60137,2470.717,2023-9-13T12:26:01Z
2023-09-13T10:26:42Z,42.805,6.029,13.3046,4.60135,2470.717,2023-9-13T12:29:04Z
2023-09-13T10:29:45Z,42.805,6.029,13.3046,4.60140,2470.693,2023-9-13T12:32:07Z
2023-09-13T10:32:53Z,42.805,6.029,13.3038,4.60140,2470.684,2023-9-13T12:35:11Z
2023-09-13T10:35:54Z,42.805,6.029,13.3043,4.60148,2470.693,2023-9-13T12:38:16Z
2023-09-13T10:38:57Z,42.805,6.029,13.3045,4.60155,2470.707,2023-9-13T12:41:19Z
2023-09-13T10:42:00Z,42.805,6.029,13.3032,4.60140,2470.693,2023-9-13T12:44:22Z
2023-09-13T10:45:03Z,42.805,6.029,13.3046,4.60144,2470.707,2023-9-13T12:47:25Z
2023-09-13T10:48:06Z,42.805,6.029,13.3040,4.60145,2470.693,2023-9-13T12:50:28Z
2023-09-13T10:51:09Z,42.805,6.029,13.3032,4.60144,2470.717,2023-9-13T12:53:31Z
2023-09-13T10:54:13Z,42.805,6.029,13.3036,4.60102,2470.67,2023-9-13T12:56:34Z
2023-09-13T10:57:16Z,42.805,6.029,13.3033,4.60140,2470.684,2023-9-13T12:59:37Z
2023-09-13T11:00:19Z,42.805,6.029,13.3046,4.60166,2470.707,2023-9-13T13:02:41Z
2023-09-13T11:03:22Z,42.805,6.029,13.3047,4.60140,2470.67,2023-9-13T13:05:44Z
2023-09-13T11:06:25Z,42.805,6.029,13.3042,4.60143,2470.693,2023-9-13T13:08:47Z
2023-09-13T11:09:28Z,42.805,6.029,13.3052,4.60144,2470.67,2023-9-13T13:11:50Z
2023-09-13T11:12:31Z,42.805,6.029,13.3043,4.60144,2470.67,2023-9-13T13:14:53Z
2023-09-13T11:15:34Z,42.805,6.029,13.3034,4.60144,2470.67,2023-9-13T13:17:56Z
2023-09-13T11:18:37Z,42.805,6.029,13.3042,4.60140,2470.67,2023-9-13T13:20:59Z
2023-09-13T11:21:40Z,42.805,6.029,13.3039,4.60137,2470.693,2023-9-13T13:24:02Z
2023-09-13T11:24:43Z,42.805,6.029,13.3048,4.60142,2470.646,2023-9-13T13:27:05Z
2023-09-13T11:27:46Z,42.805,6.029,13.3046,4.60132,2470.67,2023-9-13T13:30:08Z
2023-09-13T11:30:50Z,42.805,6.029,13.3044,4.60135,2470.684,2023-9-13T13:33:11Z
2023-09-13T11:33:53Z,42.805,6.029,13.3043,4.60135,2470.684,2023-9-13T13:36:14Z
2023-09-13T11:36:56Z,42.805,6.029,13.3041,4.60144,2470.693,2023-9-13T13:39:18Z
2023-09-13T11:39:59Z,42.805,6.029,13.3032,4.60134,2470.707,2023-9-13T13:42:21Z
2023-09-13T11:43:02Z,42.805,6.029,13.3053,4.60155,2470.707,2023-9-13T13:45:24Z
2023-09-13T11:46:05Z,42.805,6.029,13.3033,4.60139,2470.646,2023-9-13T13:48:27Z
2023-09-13T11:49:08Z,42.805,6.029,13.3036,4.60125,2470.693,2023-9-13T13:51:30Z
2023-09-13T11:52:35Z,42.805,6.029,13.3037,4.60125,2470.684,2023-9-13T13:54:57Z
2023-09-13T11:55:14Z,42.805,6.029,13.3043,4.60143,2470.656,2023-9-13T13:57:36Z
2023-09-13T11:58:17Z,42.805,6.029,13.3045,4.60134,2470.67,2023-9-13T14:00:39Z
2023-09-13T12:01:20Z,42.805,6.029,13.3040,4.60126,2470.67,2023-9-13T14:03:42Z
2023-09-13T18:38:08Z,42.805,6.029,13.3046,4.60119,2470.904,2023-9-13T20:40:30Z
2023-09-13T18:41:11Z,42.805,6.029,13.3042,4.60126,2470.88,2023-9-13T20:43:33Z
2023-09-13T18:44:14Z,42.805,6.029,13.3041,4.60127,2470.894,2023-9-13T20:46:36Z
2023-09-13T18:47:17Z,42.805,6.029,13.3039,4.60138,2470.88,2023-9-13T20:49:39Z
2023-09-13T18:50:20Z,42.805,6.029,13.3038,4.60124,2470.917,2023-9-13T20:52:42Z
2023-09-13T18:53:23Z,42.805,6.029,13.3045,4.60134,2470.917,2023-9-13T20:55:45Z
2023-09-13T18:56:26Z,42.805,6.029,13.3045,4.60122,2470.866,2023-9-13T20:58:48Z
2023-09-13T18:59:29Z,42.805,6.029,13.3034,4.60137,2470.894,2023-9-13T21:01:51Z
2023-09-13T19:02:32Z,42.805,6.029,13.3034,4.60122,2470.917,2023-9-13T21:04:54Z
2023-09-13T19:05:36Z,42.805,6.029,13.3036,4.60135,2470.88,2023-9-13T21:07:57Z
2023-09-13T19:08:39Z,42.805,6.029,13.3031,4.60121,2470.904,2023-9-13T21:11:00Z
2023-09-13T19:11:42Z,42.805,6.029,13.3039,4.60120,2470.904,2023-9-13T21:14:04Z
2023-09-13T19:14:45Z,42.805,6.029,13.3038,4.60132,2470.88,2023-9-13T21:17:07Z
2023-09-13T19:17:48Z,42.805,6.029,13.3036,4.60113,2470.88,2023-9-13T21:20:10Z
2023-09-13T19:20:51Z,42.805,6.029,13.3039,4.60114,2470.894,2023-9-13T21:23:13Z
2023-09-13T19:23:54Z,42.805,6.029,13.3042,4.60137,2470.88,2023-9-13T21:26:16Z
2023-09-13T19:26:57Z,42.805,6.029,13.3039,4.60119,2470.904,2023-9-13T21:29:19Z
2023-09-13T19:30:00Z,42.805,6.029,13.3037,4.60126,2470.904,2023-9-13T21:32:22Z
2023-09-13T19:33:03Z,42.805,6.029,13.3036,4.60131,2470.917,2023-9-13T21:35:25Z
2023-09-13T19:36:06Z,42.805,6.029,13.3040,4.60127,2470.894,2023-9-13T21:38:28Z
2023-09-13T19:39:09Z,42.805,6.029,13.3041,4.60127,2470.88,2023-9-13T21:41:31Z
2023-09-13T19:42:13Z,42.805,6.029,13.3040,4.60129,2470.904,2023-9-13T21:44:34Z
2023-09-13T19:45:16Z,42.805,6.029,13.3036,4.60125,2470.857,2023-9-13T21:47:38Z
2023-09-13T19:48:19Z,42.805,6.029,13.3036,4.60117,2470.88,2023-9-13T21:50:41Z
2023-09-13T19:51:22Z,42.805,6.029,13.3038,4.60122,2470.894,2023-9-13T21:53:44Z
2023-09-13T19:54:25Z,42.805,6.029,13.3042,4.60125,2470.917,2023-9-13T21:56:47Z
2023-09-13T19:57:28Z,42.805,6.029,13.3037,4.60120,2470.871,2023-9-13T21:59:50Z
2023-09-13T20:00:31Z,42.805,6.029,13.3041,4.60131,2470.857,2023-9-13T22:02:53Z
2023-09-13T20:03:34Z,42.805,6.029,13.3039,4.60133,2470.88,2023-9-13T22:05:56Z
2023-09-13T20:06:37Z,42.805,6.029,13.3043,4.60124,2470.843,2023-9-13T22:08:59Z
2023-09-13T20:09:40Z,42.805,6.029,13.3037,4.60114,2470.88,2023-9-13T22:12:02Z
2023-09-13T20:12:43Z,42.805,6.029,13.3041,4.60128,2470.88,2023-9-13T22:15:05Z
2023-09-13T20:15:46Z,42.805,6.029,13.3036,4.60123,2470.88,2023-9-13T22:18:08Z
2023-09-13T20:18:50Z,42.805,6.029,13.3049,4.60117,2470.88,2023-9-13T22:21:11Z
2023-09-13T20:21:53Z,42.805,6.029,13.3037,4.60127,2470.857,2023-9-13T22:24:15Z
2023-09-13T20:24:56Z,42.805,6.029,13.3038,4.60120,2470.904,2023-9-13T22:27:18Z
2023-09-13T20:27:59Z,42.805,6.029,13.3035,4.60122,2470.871,2023-9-13T22:30:21Z
2023-09-13T20:31:02Z,42.805,6.029,13.3039,4.60119,2470.894,2023-9-13T22:33:24Z
2023-09-13T20:34:05Z,42.805,6.029,13.3035,4.60114,2470.857,2023-9-13T22:36:27Z
2023-09-13T20:37:08Z,42.805,6.029,13.3036,4.60110,2470.88,2023-9-13T22:39:30Z
2023-09-13T20:40:11Z,42.805,6.029,13.3037,4.60122,2470.833,2023-9-13T22:42:33Z
2023-09-13T20:43:14Z,42.805,6.029,13.3039,4.60114,2470.871,2023-9-13T22:45:36Z
2023-09-13T20:46:17Z,42.805,6.029,13.3036,4.60125,2470.871,2023-9-13T22:48:39Z
2023-09-13T20:49:20Z,42.805,6.029,13.3034,4.60114,2470.894,2023-9-13T22:51:42Z
2023-09-13T20:52:24Z,42.805,6.029,13.3041,4.60137,2470.894,2023-9-13T22:54:45Z
2023-09-13T20:55:27Z,42.805,6.029,13.3037,4.60129,2470.857,2023-9-13T22:57:48Z
2023-09-13T20:58:30Z,42.805,6.029,13.3037,4.60116,2470.847,2023-9-13T23:00:52Z
2023-09-13T21:01:33Z,42.805,6.029,13.3036,4.60122,2470.857,2023-9-13T23:03:55Z
2023-09-13T21:04:36Z,42.805,6.029,13.3039,4.60130,2470.833,2023-9-13T23:06:58Z
2023-09-13T21:07:39Z,42.805,6.029,13.3042,4.60118,2470.871,2023-9-13T23:10:01Z
2023-09-13T21:10:42Z,42.805,6.029,13.3036,4.60134,2470.857,2023-9-13T23:13:04Z
2023-09-13T21:13:45Z,42.805,6.029,13.3043,4.60140,2470.871,2023-9-13T23:16:07Z
2023-09-13T21:16:48Z,42.805,6.029,13.3036,4.60124,2470.857,2023-9-13T23:19:10Z
2023-09-13T21:19:51Z,42.805,6.029,13.3031,4.60110,2470.833,2023-9-13T23:22:13Z
2023-09-13T21:22:54Z,42.805,6.029,13.3038,4.60121,2470.833,2023-9-13T23:25:16Z
2023-09-13T21:25:57Z,42.805,6.029,13.3044,4.60125,2470.833,2023-9-13T23:28:19Z
2023-09-13T21:29:01Z,42.805,6.029,13.3037,4.60131,2470.857,2023-9-13T23:31:22Z
2023-09-13T21:32:04Z,42.805,6.029,13.3040,4.60120,2470.833,2023-9-13T23:34:25Z
2023-09-13T21:35:07Z,42.805,6.029,13.3042,4.60135,2470.847,2023-9-13T23:37:29Z
2023-09-13T21:38:10Z,42.805,6.029,13.3030,4.60140,2470.824,2023-9-13T23:40:32Z
2023-09-13T21:41:13Z,42.805,6.029,13.3042,4.60131,2470.833,2023-9-13T23:43:35Z
2023-09-13T21:44:16Z,42.805,6.029,13.3044,4.60123,2470.787,2023-9-13T23:46:38Z
2023-09-13T21:47:19Z,42.805,6.029,13.3039,4.60137,2470.833,2023-9-13T23:49:41Z
2023-09-13T21:50:22Z,42.805,6.029,13.3034,4.60115,2470.833,2023-9-13T23:52:44Z
2023-09-13T21:53:25Z,42.805,6.029,13.3036,4.60117,2470.81,2023-9-13T23:55:47Z